Theta_e
287 287 288 288 289 290 291 293 294 295 296 298 303 309 310 309 309 310 309 309 307 304
286 286 286 287 288 288 289 292 293 293 294 296 298 303 306 307 306 306 305 305 303 301
285 286 286 287 286 286 287 289 291 291 292 293 295 298 302 304 304 303 304 304 302 301
285 285 286 286 286 285 286 287 289 291 290 291 292 295 298 300 302 301 302 302 301 301
284 284 284 284 285 285 284 286 286 289 289 289 290 292 294 297 299 299 299 300 300 300
282 283 283 283 284 284 283 284 285 287 288 288 288 290 293 295 297 298 299 299 298 298
282 282 282 283 283 282 282 282 284 285 288 288 288 289 291 293 294 296 297 298 298 297
282 282 281 282 281 281 281 282 283 283 286 288 287 288 289 291 292 293 295 296 297 297
281 280 280 279 279 280 280 280 281 283 284 286 286 288 290 290 290 292 293 294 295 295
279 278 277 278 279 278 277 279 280 282 283 285 287 288 288 289 290 291 292 293 293 292
277 276 277 278 277 276 277 278 279 280 283 284 286 288 288 288 289 290 291 292 292 291
275 275 276 274 274 275 277 278 279 281 281 284 286 288 288 288 287 288 288 289 291 290
273 274 272 272 273 275 277 278 279 279 281 284 285 288 288 288 285 285 284 284 285 285
272 270 271 272 273 274 275 275 277 279 281 283 286 286 288 288 285 285 284 284 284 285
Wind_Speed
12 9 10 11 12 11 12 13 18 18 17 19 20 15 9 6 6 7 9 13 11 10
12 12 12 14 12 10 13 14 17 19 19 18 18 19 12 8 8 8 8 9 9 6
12 12 12 12 14 14 15 16 18 20 19 18 17 18 15 10 7 8 8 8 12 12
13 13 12 11 13 14 15 16 16 18 20 19 17 16 16 13 11 9 11 10 11 15
12 13 13 13 14 15 16 16 16 17 17 19 18 16 16 15 12 10 12 12 12 13
12 12 15 15 14 15 16 16 17 16 17 17 18 16 16 15 15 12 14 13 12 12
12 13 13 15 15 15 15 16 16 16 17 17 16 16 15 14 15 14 13 13 13 13
12 13 13 14 15 15 15 15 15 17 16 17 15 12 14 15 14 14 14 12 12 13
12 13 14 15 15 15 16 16 16 15 17 17 14 24 25 20 15 14 14 13 11 11
11 14 14 14 15 15 16 16 18 18 17 18 17 27 27 24 15 13 13 13 10 8
11 13 14 15 15 15 14 16 16 18 18 17 15 27 27 22 16 13 13 11 10 11
11 13 14 15 15 14 14 15 15 16 19 18 17 25 23 19 12 9 7 6 7 9
10 12 14 14 14 12 13 15 13 18 17 18 16 21 21 17 5 6 3 3 4 10
10 12 13 14 12 12 14 15 13 15 16 17 14 15 21 20 7 6 4 5 5 5
Wind_Direction
341 336 332 332 328 328 328 326 326 325 324 322 318 302 289 266 281 273 228 235 233 208
336 332 328 327 325 325 324 324 325 322 320 319 319 311 297 268 245 223 219 221 207 205
325 325 323 322 323 324 320 322 323 323 320 319 318 314 299 278 255 238 231 213 204 202
321 320 320 318 319 320 318 319 320 320 319 317 314 312 301 286 271 242 241 225 213 211
314 316 318 317 317 319 316 315 316 315 317 314 313 311 306 290 275 256 250 234 221 218
312 315 316 315 315 316 315 313 312 315 313 313 309 308 302 294 278 261 248 240 221 211
310 311 311 310 313 313 312 309 309 311 308 310 304 303 299 291 284 267 251 236 223 211
308 309 309 310 312 311 311 308 305 306 307 309 308 302 307 299 285 275 260 239 226 217
312 312 313 313 311 311 311 311 309 306 309 307 309 305 302 301 289 276 268 252 229 216
313 312 313 308 311 311 313 311 312 310 310 305 305 307 303 301 292 277 265 252 228 205
311 308 306 308 308 309 309 312 311 308 307 305 303 308 304 299 291 273 261 247 222 201
306 301 310 306 306 309 308 307 305 306 307 304 303 307 302 302 292 274 248 225 205 195
298 303 302 299 302 300 301 301 308 303 304 302 301 305 305 296 271 270 239 202 191 184
303 298 294 294 298 301 306 307 305 306 307 310 304 307 306 297 262 250 229 205 191 191